Time,TemperatureF,DewpointF,PressureIn,WindDirection,WindDirectionDegrees,WindSpeedMPH,WindSpeedGustMPH,Humidity,HourlyPrecipIn,Conditions,Clouds,dailyrainin,SolarRadiationWatts/m^2,SoftwareType,DateUTC
2013-01-08 00:02:00,36.0,24.0,-100.00,SSE,148,6.0,10.0,62,0.00,,,-99.99,0.000000,,2013-01-08 06:02:00,
2013-01-08 00:33:00,36.0,25.0,-100.00,SSE,152,7.0,11.0,65,0.00,,,-99.99,0.000000,,2013-01-08 06:33:00,
2013-01-08 00:43:00,36.0,25.0,-100.00,SSE,152,7.0,11.0,65,0.00,,,-99.99,0.000000,,2013-01-08 06:43:00,
2013-01-08 00:53:00,36.0,25.0,-100.00,SSE,152,7.0,11.0,65,0.00,,,-99.99,0.000000,,2013-01-08 06:53:00,
2013-01-08 01:02:00,36.0,25.0,-100.00,SSE,152,7.0,11.0,65,0.00,,,-99.99,0.000000,,2013-01-08 07:02:00,
2013-01-08 01:32:00,35.0,27.0,-100.00,SSE,159,5.0,10.0,71,0.00,,,-99.99,0.000000,,2013-01-08 07:32:00,
2013-01-08 01:42:00,35.0,27.0,-100.00,SSE,159,5.0,10.0,71,0.00,,,-99.99,0.000000,,2013-01-08 07:42:00,
2013-01-08 01:52:00,35.0,27.0,-100.00,SSE,159,5.0,10.0,71,0.00,,,-99.99,0.000000,,2013-01-08 07:52:00,
2013-01-08 02:02:00,35.0,27.0,-100.00,SSE,159,5.0,10.0,71,0.00,,,-99.99,0.000000,,2013-01-08 08:02:00,
2013-01-08 02:32:00,36.0,28.0,-100.00,SSE,153,6.0,8.0,71,0.00,,,-99.99,0.000000,,2013-01-08 08:32:00,
2013-01-08 02:42:00,36.0,28.0,-100.00,SSE,153,6.0,8.0,71,0.00,,,-99.99,0.000000,,2013-01-08 08:42:00,
2013-01-08 02:53:00,36.0,28.0,-100.00,SSE,153,6.0,8.0,71,0.00,,,-99.99,0.000000,,2013-01-08 08:53:00,
2013-01-08 03:02:00,36.0,28.0,-100.00,SSE,153,6.0,8.0,71,0.00,,,-99.99,0.000000,,2013-01-08 09:02:00,
2013-01-08 03:33:00,35.0,28.0,-100.00,SSE,162,6.0,7.0,74,0.00,,,-99.99,0.000000,,2013-01-08 09:33:00,
2013-01-08 03:42:00,35.0,28.0,-100.00,SSE,162,6.0,7.0,74,0.00,,,-99.99,0.000000,,2013-01-08 09:42:00,
2013-01-08 03:52:00,35.0,28.0,-100.00,SSE,162,6.0,7.0,74,0.00,,,-99.99,0.000000,,2013-01-08 09:52:00,
2013-01-08 04:02:00,35.0,28.0,-100.00,SSE,162,6.0,7.0,74,0.00,,,-99.99,0.000000,,2013-01-08 10:02:00,
2013-01-08 04:33:00,34.0,28.0,-100.00,SSE,150,6.0,10.0,77,0.00,,,-99.99,0.000000,,2013-01-08 10:33:00,
2013-01-08 04:43:00,34.0,28.0,-100.00,SSE,150,6.0,10.0,77,0.00,,,-99.99,0.000000,,2013-01-08 10:43:00,
2013-01-08 04:52:00,34.0,28.0,-100.00,SSE,150,6.0,10.0,77,0.00,,,-99.99,0.000000,,2013-01-08 10:52:00,
2013-01-08 05:02:00,34.0,28.0,-100.00,SSE,150,6.0,10.0,77,0.00,,,-99.99,0.000000,,2013-01-08 11:02:00,
2013-01-08 05:33:00,34.0,28.0,-100.00,SE,144,7.0,10.0,79,0.00,,,-99.99,0.000000,,2013-01-08 11:33:00,
2013-01-08 05:42:00,34.0,28.0,-100.00,SE,144,7.0,10.0,79,0.00,,,-99.99,0.000000,,2013-01-08 11:42:00,
2013-01-08 05:53:00,34.0,28.0,-100.00,SE,144,7.0,10.0,79,0.00,,,-99.99,0.000000,,2013-01-08 11:53:00,
2013-01-08 06:02:00,34.0,28.0,-100.00,SE,144,7.0,10.0,79,0.00,,,-99.99,0.000000,,2013-01-08 12:02:00,
2013-01-08 06:33:00,34.0,28.0,-100.00,SSE,153,7.0,10.0,80,0.00,,,-99.99,0.000000,,2013-01-08 12:33:00,
2013-01-08 06:43:00,34.0,28.0,-100.00,SSE,153,7.0,10.0,80,0.00,,,-99.99,0.000000,,2013-01-08 12:43:00,
2013-01-08 06:53:00,34.0,28.0,-100.00,SSE,153,7.0,10.0,80,0.00,,,-99.99,0.000000,,2013-01-08 12:53:00,
2013-01-08 07:03:00,34.0,28.0,-100.00,SSE,153,7.0,10.0,80,0.00,,,-99.99,0.000000,,2013-01-08 13:03:00,
2013-01-08 07:33:00,35.0,29.0,-100.00,SE,146,6.0,9.0,80,0.00,,,-99.99,0.000000,,2013-01-08 13:33:00,
2013-01-08 07:43:00,35.0,29.0,-100.00,SE,146,6.0,9.0,80,0.00,,,-99.99,0.000000,,2013-01-08 13:43:00,
2013-01-08 07:53:00,35.0,29.0,-100.00,SE,146,6.0,9.0,80,0.00,,,-99.99,0.000000,,2013-01-08 13:53:00,
2013-01-08 08:02:00,35.0,29.0,-100.00,SE,146,6.0,9.0,80,0.00,,,-99.99,0.000000,,2013-01-08 14:02:00,
2013-01-08 08:33:00,37.0,31.0,-100.00,SSE,152,7.0,10.0,80,0.00,,,-99.99,41.000000,,2013-01-08 14:33:00,
2013-01-08 08:43:00,37.0,31.0,-100.00,SSE,152,7.0,10.0,80,0.00,,,-99.99,41.000000,,2013-01-08 14:43:00,
2013-01-08 08:53:00,37.0,31.0,-100.00,SSE,152,7.0,10.0,80,0.00,,,-99.99,41.000000,,2013-01-08 14:53:00,
2013-01-08 09:02:00,37.0,31.0,-100.00,SSE,152,7.0,10.0,80,0.00,,,-99.99,41.000000,,2013-01-08 15:02:00,
2013-01-08 09:33:00,41.0,33.0,-100.00,SSE,153,7.0,11.0,73,0.00,,,-99.99,73.000000,,2013-01-08 15:33:00,
2013-01-08 09:43:00,41.0,33.0,-100.00,SSE,153,7.0,11.0,73,0.00,,,-99.99,73.000000,,2013-01-08 15:43:00,
2013-01-08 09:53:00,41.0,33.0,-100.00,SSE,153,7.0,11.0,73,0.00,,,-99.99,73.000000,,2013-01-08 15:53:00,
2013-01-08 10:03:00,41.0,33.0,-100.00,SSE,153,7.0,11.0,73,0.00,,,-99.99,73.000000,,2013-01-08 16:03:00,
2013-01-08 10:34:00,48.0,36.0,-100.00,SSE,168,7.0,14.0,64,0.00,,,-99.99,171.000000,,2013-01-08 16:34:00,
2013-01-08 10:43:00,48.0,36.0,-100.00,SSE,168,7.0,14.0,64,0.00,,,-99.99,171.000000,,2013-01-08 16:43:00,
2013-01-08 10:53:00,48.0,36.0,-100.00,SSE,168,7.0,14.0,64,0.00,,,-99.99,171.000000,,2013-01-08 16:53:00,
2013-01-08 11:03:00,48.0,36.0,-100.00,SSE,168,7.0,14.0,64,0.00,,,-99.99,171.000000,,2013-01-08 17:03:00,
2013-01-08 11:34:00,53.0,37.0,-100.00,SSW,192,8.0,14.0,54,0.00,,,0.00,344.000000,,2013-01-08 17:34:00,
2013-01-08 11:43:00,53.0,37.0,-100.00,SSW,192,8.0,14.0,54,0.00,,,0.00,344.000000,,2013-01-08 17:43:00,
2013-01-08 11:54:00,53.0,37.0,-100.00,SSW,192,8.0,14.0,54,0.00,,,0.00,344.000000,,2013-01-08 17:54:00,
2013-01-08 12:03:00,53.0,37.0,-100.00,SSW,192,8.0,14.0,54,0.00,,,0.00,344.000000,,2013-01-08 18:03:00,
2013-01-08 12:33:00,55.0,36.0,-100.00,South,180,7.0,15.0,48,0.00,,,0.00,421.000000,,2013-01-08 18:33:00,
2013-01-08 12:43:00,55.0,36.0,-100.00,South,180,7.0,15.0,48,0.00,,,0.00,421.000000,,2013-01-08 18:43:00,
2013-01-08 12:53:00,55.0,36.0,-100.00,South,180,7.0,15.0,48,0.00,,,0.00,421.000000,,2013-01-08 18:53:00,
2013-01-08 13:03:00,55.0,36.0,-100.00,South,180,7.0,15.0,48,0.00,,,0.00,421.000000,,2013-01-08 19:03:00,
2013-01-08 13:33:00,58.0,36.0,-100.00,SE,143,5.0,13.0,44,0.00,,,0.00,417.000000,,2013-01-08 19:33:00,
2013-01-08 13:43:00,58.0,36.0,-100.00,SE,143,5.0,13.0,44,0.00,,,0.00,417.000000,,2013-01-08 19:43:00,
2013-01-08 13:53:00,58.0,36.0,-100.00,SE,143,5.0,13.0,44,0.00,,,0.00,417.000000,,2013-01-08 19:53:00,
2013-01-08 14:03:00,58.0,36.0,-100.00,SE,143,5.0,13.0,44,0.00,,,0.00,417.000000,,2013-01-08 20:03:00,
2013-01-08 14:33:00,56.0,36.0,-100.00,SSE,148,6.0,11.0,47,0.00,,,0.00,199.000000,,2013-01-08 20:33:00,
2013-01-08 14:43:00,56.0,36.0,-100.00,SSE,148,6.0,11.0,47,0.00,,,0.00,199.000000,,2013-01-08 20:43:00,
2013-01-08 14:54:00,56.0,36.0,-100.00,SSE,148,6.0,11.0,47,0.00,,,0.00,199.000000,,2013-01-08 20:54:00,
2013-01-08 15:03:00,56.0,36.0,-100.00,SSE,148,6.0,11.0,47,0.00,,,0.00,199.000000,,2013-01-08 21:03:00,
2013-01-08 15:33:00,57.0,37.0,-100.00,SE,141,5.0,11.0,47,0.00,,,0.00,160.000000,,2013-01-08 21:33:00,
2013-01-08 15:43:00,57.0,37.0,-100.00,SE,141,5.0,11.0,47,0.00,,,0.00,160.000000,,2013-01-08 21:43:00,
2013-01-08 15:53:00,57.0,37.0,-100.00,SE,141,5.0,11.0,47,0.00,,,0.00,160.000000,,2013-01-08 21:53:00,
2013-01-08 16:03:00,57.0,37.0,-100.00,SE,141,5.0,11.0,47,0.00,,,0.00,160.000000,,2013-01-08 22:03:00,
2013-01-08 16:33:00,56.0,38.0,-100.00,SE,137,7.0,10.0,50,0.00,,,0.00,75.000000,,2013-01-08 22:33:00,
2013-01-08 16:43:00,56.0,38.0,-100.00,SE,137,7.0,10.0,50,0.00,,,0.00,75.000000,,2013-01-08 22:43:00,
2013-01-08 16:53:00,56.0,38.0,-100.00,SE,137,7.0,10.0,50,0.00,,,0.00,75.000000,,2013-01-08 22:53:00,
2013-01-08 17:02:00,56.0,38.0,-100.00,SE,137,7.0,10.0,50,0.00,,,0.00,75.000000,,2013-01-08 23:02:00,
2013-01-08 17:33:00,54.0,37.0,-100.00,SE,133,6.0,10.0,53,0.00,,,0.00,12.000000,,2013-01-08 23:33:00,
2013-01-08 17:43:00,54.0,37.0,-100.00,SE,133,6.0,10.0,53,0.00,,,0.00,12.000000,,2013-01-08 23:43:00,
2013-01-08 17:53:00,54.0,37.0,-100.00,SE,133,6.0,10.0,53,0.00,,,0.00,12.000000,,2013-01-08 23:53:00,
2013-01-08 18:02:00,54.0,37.0,-100.00,SE,133,6.0,10.0,53,0.00,,,0.00,12.000000,,2013-01-09 00:02:00,
2013-01-08 18:33:00,52.0,38.0,-100.00,SE,124,4.0,10.0,59,0.00,,,0.00,0.000000,,2013-01-09 00:33:00,
2013-01-08 18:43:00,52.0,38.0,-100.00,SE,124,4.0,10.0,59,0.00,,,0.00,0.000000,,2013-01-09 00:43:00,
2013-01-08 18:53:00,52.0,38.0,-100.00,SE,124,4.0,10.0,59,0.00,,,0.00,0.000000,,2013-01-09 00:53:00,
2013-01-08 19:02:00,52.0,38.0,-100.00,SE,124,4.0,10.0,59,0.00,,,0.00,0.000000,,2013-01-09 01:02:00,
2013-01-08 19:33:00,50.0,38.0,-100.00,ESE,116,5.0,7.0,64,0.00,,,0.00,0.000000,,2013-01-09 01:33:00,
2013-01-08 19:42:00,50.0,38.0,-100.00,ESE,116,5.0,7.0,64,0.00,,,0.00,0.000000,,2013-01-09 01:42:00,
2013-01-08 19:52:00,50.0,38.0,-100.00,ESE,116,5.0,7.0,64,0.00,,,0.00,0.000000,,2013-01-09 01:52:00,
2013-01-08 20:02:00,50.0,38.0,-100.00,ESE,116,5.0,7.0,64,0.00,,,0.00,0.000000,,2013-01-09 02:02:00,
2013-01-08 20:33:00,51.0,40.0,-100.00,SE,131,7.0,9.0,65,0.00,,,0.00,0.000000,,2013-01-09 02:33:00,
2013-01-08 20:43:00,51.0,40.0,-100.00,SE,131,7.0,9.0,65,0.00,,,0.00,0.000000,,2013-01-09 02:43:00,
2013-01-08 20:53:00,51.0,40.0,-100.00,SE,131,7.0,9.0,65,0.00,,,0.00,0.000000,,2013-01-09 02:53:00,
2013-01-08 21:03:00,51.0,40.0,-100.00,SE,131,7.0,9.0,65,0.00,,,0.00,0.000000,,2013-01-09 03:03:00,
2013-01-08 21:33:00,50.0,39.0,-100.00,SE,140,7.0,10.0,65,0.00,,,0.00,0.000000,,2013-01-09 03:33:00,
2013-01-08 21:43:00,50.0,39.0,-100.00,SE,140,7.0,10.0,65,0.00,,,0.00,0.000000,,2013-01-09 03:43:00,
2013-01-08 21:53:00,50.0,39.0,-100.00,SE,140,7.0,10.0,65,0.00,,,0.00,0.000000,,2013-01-09 03:53:00,
2013-01-08 22:02:00,50.0,39.0,-100.00,SE,140,7.0,10.0,65,0.00,,,0.00,0.000000,,2013-01-09 04:02:00,
2013-01-08 22:33:00,51.0,39.0,-100.00,SE,136,7.0,11.0,63,0.00,,,0.00,0.000000,,2013-01-09 04:33:00,
2013-01-08 22:43:00,51.0,39.0,-100.00,SE,136,7.0,11.0,63,0.00,,,0.00,0.000000,,2013-01-09 04:43:00,
2013-01-08 22:52:00,51.0,39.0,-100.00,SE,136,7.0,11.0,63,0.00,,,0.00,0.000000,,2013-01-09 04:52:00,
2013-01-08 23:03:00,51.0,39.0,-100.00,SE,136,7.0,11.0,63,0.00,,,0.00,0.000000,,2013-01-09 05:03:00,
2013-01-08 23:33:00,50.0,39.0,-100.00,SE,144,7.0,11.0,65,0.00,,,0.00,0.000000,,2013-01-09 05:33:00,
2013-01-08 23:43:00,50.0,39.0,-100.00,SE,144,7.0,11.0,65,0.00,,,0.00,0.000000,,2013-01-09 05:43:00,
2013-01-08 23:53:00,50.0,39.0,-100.00,SE,144,7.0,11.0,65,0.00,,,0.00,0.000000,,2013-01-09 05:53:00,